| time (UTC) | temp F | wind direction | speed knots | gust knots | rain 1hr in | rain 24hr in | rain mn in | humidity % | barometer mb |
| 20260905212026 | 77 | 0 | 0.0 | 0.0 | 0.05 | 1.04 | 0.92 | 100 | 1011.3 |
| 20260905211545 | 77 | 0 | 0.0 | 0.0 | 0.05 | 1.04 | 0.92 | 100 | 1011.4 |
| 20260905211022 | 77 | 0 | 0.0 | 0.0 | 0.06 | 1.04 | 0.92 | 100 | 1011.5 |
| 20260905210518 | 77 | 0 | 0.0 | 0.0 | 0.06 | 1.04 | 0.92 | 100 | 1011.4 |
| 20260905210055 | 77 | 0 | 0.0 | 0.0 | 0.05 | 1.04 | 0.91 | 100 | 1011.5 |
| 20260905205519 | 77 | 0 | 0.0 | 0.0 | 0.06 | 1.04 | 0.91 | 100 | 1011.6 |
| 20260905205020 | 77 | 0 | 0.0 | 0.0 | 0.05 | 1.03 | 0.90 | 100 | 1011.8 |
| 20260905204542 | 77 | 0 | 0.0 | 0.0 | 0.06 | 1.03 | 0.90 | 100 | 1011.9 |
| 20260905204019 | 77 | 0 | 0.0 | 0.0 | 0.05 | 1.02 | 0.89 | 100 | 1012.0 |
| 20260905203518 | 76 | 0 | 0.0 | 0.0 | 0.05 | 1.02 | 0.89 | 100 | 1012.0 |
| 20260905203038 | 76 | 0 | 0.0 | 0.0 | 0.04 | 1.01 | 0.88 | 100 | 1011.9 |
| 20260905202520 | 76 | 0 | 0.0 | 0.0 | 0.05 | 1.01 | 0.88 | 100 | 1012.0 |
| 20260905202020 | 76 | 0 | 0.0 | 0.0 | 0.04 | 1.00 | 0.87 | 100 | 1012.1 |
| 20260905201539 | 76 | 0 | 0.0 | 0.0 | 0.04 | 1.00 | 0.87 | 100 | 1012.2 |
| 20260905201025 | 76 | 0 | 0.0 | 0.0 | 0.03 | 0.99 | 0.86 | 100 | 1012.3 |
| 20260905200521 | 76 | 0 | 0.0 | 0.0 | 0.03 | 0.99 | 0.86 | 100 | 1012.6 |
| 20260905200055 | 76 | 0 | 0.0 | 0.0 | 0.03 | 0.99 | 0.86 | 100 | 1012.6 |
| 20260905195521 | 76 | 0 | 0.0 | 0.0 | 0.02 | 0.98 | 0.85 | 100 | 1012.5 |
| 20260905195021 | 76 | 0 | 0.0 | 0.0 | 0.02 | 0.98 | 0.85 | 100 | 1012.6 |
| 20260905194540 | 76 | 0 | 0.0 | 0.9 | 0.02 | 0.97 | 0.84 | 100 | 1012.5 |
| 20260905194019 | 76 | 0 | 0.0 | 0.9 | 0.05 | 0.97 | 0.84 | 100 | 1012.5 |
| 20260905193518 | 76 | 0 | 0.0 | 0.0 | 0.10 | 0.97 | 0.84 | 100 | 1012.6 |
| 20260905193035 | 76 | 0 | 0.0 | 0.0 | 0.20 | 0.96 | 0.83 | 100 | 1012.6 |
| 20260905192521 | 76 | 0 | 0.0 | 0.0 | 0.43 | 0.96 | 0.83 | 100 | 1012.6 |
| 20260905192020 | 76 | 0 | 0.0 | 0.0 | 0.58 | 0.96 | 0.83 | 100 | 1012.5 |
| 20260905191540 | 76 | 0 | 0.0 | 0.0 | 0.60 | 0.96 | 0.83 | 100 | 1012.1 |
| 20260905191019 | 75 | 0 | 0.0 | 0.0 | 0.60 | 0.96 | 0.83 | 100 | 1012.0 |
| 20260905190520 | 75 | 0 | 0.0 | 0.0 | 0.60 | 0.96 | 0.83 | 100 | 1011.9 |
| 20260905190039 | 75 | 0 | 0.0 | 0.0 | 0.60 | 0.96 | 0.83 | 100 | 1012.1 |
| 20260905185517 | 75 | 0 | 0.0 | 0.0 | 0.60 | 0.96 | 0.83 | 100 | 1012.3 |
| 20260905185018 | 75 | 0 | 0.0 | 0.0 | 0.60 | 0.96 | 0.83 | 100 | 1012.4 |
| 20260905184542 | 75 | 0 | 0.0 | 0.9 | 0.58 | 0.95 | 0.82 | 100 | 1012.5 |
| 20260905184024 | 75 | 0 | 0.0 | 2.6 | 0.55 | 0.91 | 0.78 | 99 | 1013.1 |
| 20260905183521 | 76 | 0 | 0.0 | 3.5 | 0.51 | 0.87 | 0.74 | 97 | 1013.1 |
| 20260905183039 | 78 | 316 | 0.9 | 3.5 | 0.37 | 0.73 | 0.60 | 95 | 1013.1 |
| 20260905182525 | 79 | 191 | 0.0 | 5.2 | 0.13 | 0.49 | 0.36 | 94 | 1013.4 |
| 20260905182020 | 81 | 276 | 0.9 | 6.1 | 0.01 | 0.37 | 0.24 | 90 | 1013.1 |
| 20260905181541 | 85 | 94 | 1.7 | 6.1 | 0.00 | 0.36 | 0.23 | 84 | 1013.3 |
| 20260905181019 | 89 | 244 | 0.9 | 6.1 | 0.00 | 0.36 | 0.23 | 82 | 1012.9 |
| 20260905180524 | 90 | 0 | 0.0 | 0.9 | 0.00 | 0.36 | 0.23 | 85 | 1012.4 |
| 20260905180039 | 89 | 0 | 0.0 | 0.9 | 0.00 | 0.36 | 0.23 | 88 | 1012.1 |
| 20260905175517 | 88 | 0 | 0.0 | 0.0 | 0.00 | 0.36 | 0.23 | 90 | 1012.1 |
| 20260905175021 | 89 | 0 | 0.0 | 0.9 | 0.07 | 0.36 | 0.23 | 90 | 1012.1 |
| 20260905174539 | 88 | 0 | 0.0 | 0.9 | 0.20 | 0.36 | 0.23 | 91 | 1012.0 |
| 20260905174021 | 88 | 0 | 0.0 | 0.0 | 0.22 | 0.36 | 0.23 | 95 | 1012.0 |
| 20260905173521 | 86 | 0 | 0.0 | 0.0 | 0.22 | 0.36 | 0.23 | 98 | 1012.2 |
| 20260905173041 | 85 | 0 | 0.0 | 0.0 | 0.22 | 0.36 | 0.23 | 98 | 1012.3 |
| 20260905172520 | 83 | 0 | 0.0 | 0.0 | 0.22 | 0.36 | 0.23 | 100 | 1012.4 |
| 20260905172022 | 82 | 0 | 0.0 | 0.0 | 0.22 | 0.36 | 0.23 | 99 | 1012.5 |
| 20260905171555 | 81 | 0 | 0.0 | 0.0 | 0.22 | 0.36 | 0.23 | 98 | 1012.5 |
| 20260905171021 | 80 | 0 | 0.0 | 0.0 | 0.22 | 0.36 | 0.23 | 97 | 1012.5 |
| 20260905170518 | 80 | 0 | 0.0 | 0.0 | 0.22 | 0.36 | 0.23 | 96 | 1012.6 |
| 20260905170039 | 80 | 0 | 0.0 | 2.6 | 0.22 | 0.36 | 0.23 | 93 | 1012.9 |
| 20260905165517 | 82 | 0 | 0.0 | 2.6 | 0.22 | 0.36 | 0.23 | 90 | 1012.9 |
| 20260905165023 | 85 | 114 | 0.0 | 1.7 | 0.12 | 0.26 | 0.13 | 84 | 1013.4 |
| 20260905164541 | 90 | 0 | 0.0 | 1.7 | 0.02 | 0.16 | 0.03 | 84 | 1013.2 |
| 20260905164020 | 92 | 0 | 0.0 | 1.7 | 0.00 | 0.14 | 0.01 | 80 | 1013.3 |
| 20260905163521 | 92 | 0 | 0.0 | 1.7 | 0.00 | 0.14 | 0.01 | 78 | 1013.2 |
| 20260905163039 | 92 | 0 | 0.0 | 0.0 | 0.00 | 0.14 | 0.01 | 78 | 1013.3 |
| 20260905162520 | 92 | 0 | 0.0 | 1.7 | 0.00 | 0.14 | 0.01 | 79 | 1013.3 |
| 20260905162019 | 91 | 0 | 0.0 | 1.7 | 0.00 | 0.14 | 0.01 | 81 | 1013.4 |
| 20260905161542 | 91 | 0 | 0.0 | 1.7 | 0.00 | 0.14 | 0.01 | 80 | 1013.5 |
| 20260905161020 | 90 | 0 | 0.0 | 3.5 | 0.00 | 0.14 | 0.01 | 82 | 1013.5 |
| 20260905160520 | 90 | 0 | 0.0 | 3.5 | 0.00 | 0.14 | 0.01 | 80 | 1013.6 |
| 20260905160046 | 90 | 253 | 0.0 | 3.5 | 0.00 | 0.14 | 0.01 | 80 | 1013.7 |
| 20260905155518 | 90 | 144 | 0.0 | 1.7 | 0.00 | 0.14 | 0.01 | 81 | 1013.7 |
| 20260905155016 | 90 | 0 | 0.0 | 1.7 | 0.00 | 0.14 | 0.01 | 82 | 1013.8 |
| 20260905154552 | 90 | 0 | 0.0 | 1.7 | 0.00 | 0.14 | 0.01 | 82 | 1013.8 |
| 20260905154020 | 90 | 0 | 0.0 | 1.7 | 0.00 | 0.14 | 0.01 | 82 | 1013.8 |
| 20260905153521 | 90 | 0 | 0.0 | 0.9 | 0.00 | 0.14 | 0.01 | 84 | 1013.9 |
| 20260905153042 | 90 | 0 | 0.0 | 0.9 | 0.00 | 0.14 | 0.01 | 83 | 1013.8 |
| 20260905152525 | 89 | 0 | 0.0 | 2.6 | 0.00 | 0.14 | 0.01 | 86 | 1013.9 |
| 20260905152019 | 89 | 0 | 0.0 | 2.6 | 0.00 | 0.14 | 0.01 | 86 | 1014.0 |
| 20260905151538 | 88 | 71 | 0.0 | 2.6 | 0.00 | 0.14 | 0.01 | 86 | 1014.0 |
| 20260905151024 | 88 | 0 | 0.0 | 0.9 | 0.00 | 0.14 | 0.01 | 85 | 1014.0 |
| 20260905150520 | 88 | 195 | 0.0 | 0.9 | 0.00 | 0.14 | 0.01 | 88 | 1014.0 |
| 20260905150039 | 88 | 0 | 0.0 | 0.9 | 0.00 | 0.14 | 0.01 | 90 | 1014.0 |
| 20260905145520 | 87 | 0 | 0.0 | 0.9 | 0.00 | 0.14 | 0.01 | 90 | 1014.1 |
| 20260905145023 | 86 | 0 | 0.0 | 0.9 | 0.00 | 0.14 | 0.01 | 91 | 1014.1 |
| 20260905144550 | 85 | 0 | 0.0 | 0.9 | 0.00 | 0.14 | 0.01 | 93 | 1014.1 |
| 20260905144017 | 85 | 0 | 0.0 | 0.0 | 0.00 | 0.14 | 0.01 | 94 | 1014.1 |
| 20260905143521 | 84 | 0 | 0.0 | 0.0 | 0.00 | 0.14 | 0.01 | 97 | 1014.1 |
| 20260905143036 | 83 | 0 | 0.0 | 0.0 | 0.00 | 0.14 | 0.01 | 98 | 1014.1 |
| 20260905142520 | 82 | 0 | 0.0 | 0.0 | 0.00 | 0.14 | 0.01 | 100 | 1014.3 |
| 20260905142026 | 81 | 0 | 0.0 | 0.0 | 0.00 | 0.14 | 0.01 | 100 | 1014.1 |
| 20260905141540 | 80 | 0 | 0.0 | 0.0 | 0.00 | 0.14 | 0.01 | 100 | 1014.1 |
| 20260905141021 | 80 | 0 | 0.0 | 0.0 | 0.00 | 0.14 | 0.01 | 100 | 1014.0 |
| 20260905140519 | 79 | 0 | 0.0 | 0.0 | 0.00 | 0.14 | 0.01 | 100 | 1014.0 |
| 20260905140042 | 79 | 0 | 0.0 | 0.0 | 0.00 | 0.14 | 0.01 | 100 | 1014.0 |
| 20260905135520 | 79 | 0 | 0.0 | 0.0 | 0.00 | 0.14 | 0.01 | 100 | 1013.8 |
| 20260905135019 | 79 | 0 | 0.0 | 0.0 | 0.00 | 0.14 | 0.01 | 100 | 1013.8 |
| 20260905134544 | 79 | 0 | 0.0 | 0.0 | 0.00 | 0.14 | 0.01 | 100 | 1013.9 |
| 20260905134020 | 78 | 0 | 0.0 | 0.0 | 0.00 | 0.14 | 0.01 | 100 | 1013.8 |
| 20260905133522 | 78 | 0 | 0.0 | 0.0 | 0.00 | 0.14 | 0.01 | 100 | 1013.8 |
| 20260905133037 | 78 | 0 | 0.0 | 0.0 | 0.00 | 0.14 | 0.01 | 100 | 1013.9 |
| 20260905132519 | 78 | 0 | 0.0 | 0.0 | 0.00 | 0.14 | 0.01 | 100 | 1013.9 |
| 20260905132023 | 78 | 0 | 0.0 | 0.0 | 0.00 | 0.14 | 0.01 | 100 | 1013.8 |
| 20260905131537 | 78 | 0 | 0.0 | 0.0 | 0.00 | 0.14 | 0.01 | 100 | 1013.9 |
| 20260905131020 | 78 | 0 | 0.0 | 0.0 | 0.00 | 0.14 | 0.01 | 100 | 1013.9 |
| 20260905130520 | 78 | 0 | 0.0 | 0.0 | 0.00 | 0.14 | 0.01 | 100 | 1013.8 |
| 20260905130040 | 78 | 0 | 0.0 | 0.0 | 0.00 | 0.14 | 0.01 | 100 | 1013.8 |
| 20260905125522 | 77 | 0 | 0.0 | 0.0 | 0.00 | 0.14 | 0.01 | 100 | 1013.8 |
| 20260905125019 | 77 | 0 | 0.0 | 0.0 | 0.00 | 0.14 | 0.01 | 100 | 1013.7 |
| 20260905124548 | 77 | 0 | 0.0 | 0.0 | 0.00 | 0.14 | 0.01 | 100 | 1013.7 |
| 20260905124023 | 77 | 0 | 0.0 | 0.0 | 0.00 | 0.14 | 0.01 | 100 | 1013.6 |
| 20260905123516 | 77 | 0 | 0.0 | 0.0 | 0.00 | 0.14 | 0.01 | 100 | 1013.6 |
| 20260905123037 | 77 | 0 | 0.0 | 0.0 | 0.00 | 0.14 | 0.01 | 100 | 1013.6 |
| 20260905122527 | 77 | 0 | 0.0 | 0.0 | 0.00 | 0.14 | 0.01 | 100 | 1013.6 |
| 20260905122019 | 76 | 0 | 0.0 | 0.0 | 0.00 | 0.14 | 0.01 | 100 | 1013.6 |
| 20260905121539 | 76 | 0 | 0.0 | 0.0 | 0.00 | 0.14 | 0.01 | 100 | 1013.5 |
| 20260905121020 | 76 | 0 | 0.0 | 0.0 | 0.00 | 0.14 | 0.01 | 100 | 1013.6 |
| 20260905120520 | 76 | 0 | 0.0 | 0.0 | 0.00 | 0.14 | 0.01 | 100 | 1013.6 |
| 20260905120040 | 76 | 0 | 0.0 | 0.0 | 0.00 | 0.14 | 0.01 | 100 | 1013.4 |
| 20260905115521 | 76 | 0 | 0.0 | 0.0 | 0.00 | 0.14 | 0.01 | 100 | 1013.4 |
| 20260905115022 | 76 | 0 | 0.0 | 0.0 | 0.00 | 0.14 | 0.01 | 100 | 1013.3 |
| 20260905114539 | 76 | 0 | 0.0 | 0.0 | 0.00 | 0.14 | 0.01 | 100 | 1013.3 |
| 20260905114020 | 76 | 0 | 0.0 | 0.0 | 0.00 | 0.14 | 0.01 | 100 | 1013.2 |
| 20260905113526 | 76 | 0 | 0.0 | 0.0 | 0.00 | 0.14 | 0.01 | 100 | 1013.0 |
| 20260905113038 | 75 | 0 | 0.0 | 0.0 | 0.00 | 0.14 | 0.01 | 100 | 1013.1 |
| 20260905112521 | 75 | 0 | 0.0 | 0.0 | 0.00 | 0.14 | 0.01 | 100 | 1013.2 |
| 20260905112020 | 75 | 0 | 0.0 | 0.0 | 0.00 | 0.14 | 0.01 | 100 | 1013.1 |
| 20260905111541 | 75 | 0 | 0.0 | 0.0 | 0.00 | 0.14 | 0.01 | 100 | 1013.2 |
| 20260905111019 | 75 | 0 | 0.0 | 0.0 | 0.00 | 0.14 | 0.01 | 100 | 1013.1 |
| 20260905110520 | 75 | 0 | 0.0 | 0.0 | 0.00 | 0.14 | 0.01 | 100 | 1013.0 |
| 20260905110039 | 75 | 0 | 0.0 | 0.0 | 0.00 | 0.14 | 0.01 | 100 | 1013.0 |
| 20260905105521 | 75 | 0 | 0.0 | 0.0 | 0.00 | 0.14 | 0.01 | 100 | 1012.9 |
| 20260905105021 | 76 | 0 | 0.0 | 0.0 | 0.00 | 0.14 | 0.01 | 100 | 1012.9 |
| 20260905104545 | 75 | 0 | 0.0 | 0.0 | 0.00 | 0.14 | 0.01 | 100 | 1012.8 |
| 20260905104025 | 75 | 0 | 0.0 | 0.0 | 0.00 | 0.14 | 0.01 | 100 | 1012.8 |
| 20260905103518 | 75 | 0 | 0.0 | 0.0 | 0.00 | 0.14 | 0.01 | 100 | 1012.7 |
| 20260905103045 | 75 | 0 | 0.0 | 0.0 | 0.00 | 0.14 | 0.01 | 100 | 1012.5 |
| 20260905102520 | 75 | 0 | 0.0 | 0.0 | 0.00 | 0.14 | 0.01 | 100 | 1012.5 |
| 20260905102019 | 75 | 0 | 0.0 | 0.0 | 0.00 | 0.14 | 0.01 | 100 | 1012.5 |
| 20260905101540 | 76 | 0 | 0.0 | 0.0 | 0.00 | 0.14 | 0.01 | 100 | 1012.5 |
| 20260905101018 | 75 | 0 | 0.0 | 0.0 | 0.00 | 0.14 | 0.01 | 100 | 1012.4 |
| 20260905100521 | 75 | 0 | 0.0 | 0.0 | 0.00 | 0.14 | 0.01 | 100 | 1012.4 |
| 20260905100041 | 75 | 0 | 0.0 | 0.0 | 0.00 | 0.14 | 0.01 | 100 | 1012.4 |
| 20260905095521 | 75 | 0 | 0.0 | 0.0 | 0.00 | 0.14 | 0.01 | 100 | 1012.5 |
| 20260905095021 | 75 | 0 | 0.0 | 0.0 | 0.00 | 0.14 | 0.01 | 100 | 1012.4 |
| 20260905094547 | 75 | 0 | 0.0 | 0.0 | 0.00 | 0.14 | 0.01 | 100 | 1012.3 |
| 20260905094021 | 75 | 0 | 0.0 | 0.0 | 0.00 | 0.14 | 0.01 | 100 | 1012.3 |
| 20260905093521 | 75 | 0 | 0.0 | 0.0 | 0.00 | 0.14 | 0.01 | 100 | 1012.4 |
| 20260905093044 | 75 | 0 | 0.0 | 0.0 | 0.00 | 0.14 | 0.01 | 100 | 1012.5 |
| 20260905092519 | 75 | 0 | 0.0 | 0.0 | 0.00 | 0.14 | 0.01 | 100 | 1012.5 |
| 20260905092019 | 75 | 0 | 0.0 | 0.0 | 0.00 | 0.14 | 0.01 | 100 | 1012.4 |
| 20260905091542 | 75 | 0 | 0.0 | 0.0 | 0.00 | 0.14 | 0.01 | 100 | 1012.5 |
| 20260905091022 | 75 | 0 | 0.0 | 0.0 | 0.00 | 0.14 | 0.01 | 100 | 1012.5 |
| 20260905090538 | 75 | 0 | 0.0 | 0.0 | 0.00 | 0.14 | 0.01 | 100 | 1012.4 |
| 20260905090035 | 75 | 0 | 0.0 | 0.0 | 0.00 | 0.14 | 0.01 | 100 | 1012.6 |
| 20260905085521 | 75 | 0 | 0.0 | 0.0 | 0.00 | 0.14 | 0.01 | 100 | 1012.5 |
| 20260905085025 | 75 | 0 | 0.0 | 0.0 | 0.00 | 0.14 | 0.01 | 100 | 1012.5 |
| 20260905084542 | 74 | 0 | 0.0 | 0.0 | 0.00 | 0.14 | 0.01 | 100 | 1012.5 |
| 20260905084021 | 74 | 0 | 0.0 | 0.0 | 0.00 | 0.14 | 0.01 | 100 | 1012.4 |
| 20260905083522 | 74 | 0 | 0.0 | 0.0 | 0.00 | 0.14 | 0.01 | 100 | 1012.5 |
| 20260905083040 | 74 | 0 | 0.0 | 0.0 | 0.00 | 0.14 | 0.01 | 100 | 1012.5 |
| 20260905082520 | 74 | 0 | 0.0 | 0.0 | 0.00 | 0.14 | 0.01 | 100 | 1012.6 |
| 20260905082019 | 74 | 0 | 0.0 | 0.0 | 0.00 | 0.14 | 0.01 | 100 | 1012.7 |
| 20260905081539 | 74 | 0 | 0.0 | 0.0 | 0.00 | 0.14 | 0.01 | 100 | 1012.7 |
| 20260905081023 | 74 | 0 | 0.0 | 0.0 | 0.00 | 0.14 | 0.01 | 100 | 1012.6 |
| 20260905080520 | 74 | 0 | 0.0 | 0.0 | 0.00 | 0.14 | 0.01 | 100 | 1012.6 |
| 20260905080051 | 74 | 0 | 0.0 | 0.0 | 0.00 | 0.14 | 0.01 | 100 | 1012.7 |
| 20260905075521 | 74 | 0 | 0.0 | 0.0 | 0.00 | 0.14 | 0.01 | 100 | 1012.7 |
| 20260905075025 | 74 | 0 | 0.0 | 0.0 | 0.00 | 0.14 | 0.01 | 100 | 1012.6 |
| 20260905074539 | 74 | 0 | 0.0 | 0.0 | 0.00 | 0.14 | 0.01 | 100 | 1012.5 |
| 20260905074020 | 74 | 0 | 0.0 | 0.0 | 0.00 | 0.14 | 0.01 | 100 | 1012.4 |
| 20260905073519 | 74 | 0 | 0.0 | 0.0 | 0.00 | 0.14 | 0.01 | 100 | 1012.5 |
| 20260905073046 | 74 | 0 | 0.0 | 0.0 | 0.00 | 0.14 | 0.01 | 100 | 1012.5 |
| 20260905072520 | 74 | 0 | 0.0 | 0.0 | 0.00 | 0.14 | 0.01 | 100 | 1012.4 |
| 20260905072019 | 74 | 0 | 0.0 | 0.0 | 0.00 | 0.14 | 0.01 | 100 | 1012.4 |
| 20260905071548 | 74 | 0 | 0.0 | 0.0 | 0.00 | 0.14 | 0.01 | 100 | 1012.5 |
| 20260905071017 | 74 | 0 | 0.0 | 0.0 | 0.00 | 0.14 | 0.01 | 100 | 1012.5 |
| 20260905070519 | 74 | 0 | 0.0 | 0.0 | 0.00 | 0.14 | 0.01 | 100 | 1012.6 |
| 20260905070046 | 74 | 0 | 0.0 | 0.0 | 0.00 | 0.14 | 0.01 | 100 | 1012.8 |
| 20260905065524 | 75 | 0 | 0.0 | 0.0 | 0.00 | 0.14 | 0.01 | 100 | 1012.9 |
| 20260905065023 | 74 | 0 | 0.0 | 0.0 | 0.00 | 0.14 | 0.01 | 100 | 1013.0 |
| 20260905064539 | 75 | 0 | 0.0 | 0.0 | 0.00 | 0.14 | 0.01 | 100 | 1013.1 |
| 20260905064023 | 75 | 0 | 0.0 | 0.0 | 0.00 | 0.14 | 0.01 | 100 | 1013.1 |
| 20260905063523 | 75 | 0 | 0.0 | 0.0 | 0.00 | 0.14 | 0.01 | 100 | 1013.1 |
| 20260905063041 | 75 | 0 | 0.0 | 0.0 | 0.00 | 0.14 | 0.01 | 100 | 1013.2 |
| 20260905062520 | 75 | 0 | 0.0 | 0.0 | 0.00 | 0.14 | 0.01 | 100 | 1013.2 |
| 20260905062020 | 75 | 0 | 0.0 | 0.0 | 0.00 | 0.14 | 0.01 | 100 | 1013.3 |
| 20260905061601 | 75 | 0 | 0.0 | 0.0 | 0.00 | 0.14 | 0.01 | 100 | 1013.3 |
| 20260905061020 | 75 | 0 | 0.0 | 0.0 | 0.00 | 0.14 | 0.01 | 100 | 1013.4 |
| 20260905060517 | 75 | 0 | 0.0 | 0.0 | 0.00 | 0.14 | 0.01 | 100 | 1013.4 |
| 20260905060035 | 75 | 0 | 0.0 | 0.0 | 0.00 | 0.14 | 0.01 | 100 | 1013.4 |
| 20260905055519 | 75 | 0 | 0.0 | 0.0 | 0.00 | 0.14 | 0.01 | 100 | 1013.3 |
| 20260905055022 | 75 | 0 | 0.0 | 0.0 | 0.00 | 0.14 | 0.01 | 100 | 1013.5 |
| 20260905054539 | 75 | 0 | 0.0 | 0.0 | 0.00 | 0.14 | 0.01 | 100 | 1013.5 |
| 20260905054021 | 75 | 0 | 0.0 | 0.0 | 0.00 | 0.14 | 0.01 | 100 | 1013.6 |
| 20260905053522 | 75 | 0 | 0.0 | 0.0 | 0.00 | 0.14 | 0.01 | 100 | 1013.6 |
| 20260905053041 | 75 | 0 | 0.0 | 0.0 | 0.00 | 0.14 | 0.01 | 100 | 1013.5 |
| 20260905052520 | 75 | 0 | 0.0 | 0.0 | 0.00 | 0.14 | 0.01 | 100 | 1013.7 |
| 20260905052021 | 75 | 0 | 0.0 | 0.0 | 0.00 | 0.14 | 0.01 | 100 | 1013.7 |
| 20260905051543 | 75 | 0 | 0.0 | 0.0 | 0.00 | 0.14 | 0.01 | 100 | 1013.7 |
| 20260905051020 | 75 | 0 | 0.0 | 0.0 | 0.00 | 0.14 | 0.01 | 100 | 1013.7 |
| 20260905050523 | 75 | 0 | 0.0 | 0.0 | 0.00 | 0.14 | 0.01 | 100 | 1013.8 |
| 20260905050040 | 75 | 0 | 0.0 | 0.0 | 0.01 | 0.14 | 0.01 | 100 | 1013.8 |
| 20260905045516 | 75 | 0 | 0.0 | 0.0 | 0.01 | 0.14 | 0.01 | 100 | 1013.8 |
| 20260905045021 | 75 | 0 | 0.0 | 0.0 | 0.01 | 0.14 | 0.01 | 100 | 1013.8 |
| 20260905044539 | 75 | 0 | 0.0 | 0.0 | 0.01 | 0.14 | 0.01 | 100 | 1013.9 |
| 20260905044019 | 75 | 0 | 0.0 | 0.0 | 0.01 | 0.14 | 0.01 | 100 | 1013.9 |
| 20260905043521 | 75 | 0 | 0.0 | 0.0 | 0.01 | 0.14 | 0.01 | 100 | 1013.9 |
| 20260905043106 | 75 | 0 | 0.0 | 0.0 | 0.01 | 0.14 | 0.01 | 100 | 1013.9 |
| 20260905042524 | 75 | 0 | 0.0 | 0.0 | 0.01 | 0.14 | 0.01 | 100 | 1014.0 |
| 20260905042021 | 75 | 0 | 0.0 | 0.0 | 0.01 | 0.14 | 0.01 | 100 | 1013.9 |
| 20260905041540 | 75 | 0 | 0.0 | 0.0 | 0.01 | 0.14 | 0.01 | 100 | 1014.0 |
| 20260905041020 | 75 | 0 | 0.0 | 0.0 | 0.01 | 0.14 | 0.01 | 100 | 1014.1 |
| 20260905040520 | 75 | 0 | 0.0 | 0.0 | 0.01 | 0.14 | 0.01 | 100 | 1014.2 |
| 20260905040052 | 75 | 0 | 0.0 | 0.0 | 0.00 | 0.13 | 0.00 | 100 | 1014.1 |
| 20260905035519 | 75 | 0 | 0.0 | 0.0 | 0.00 | 0.13 | 0.13 | 100 | 1014.1 |
| 20260905035021 | 75 | 0 | 0.0 | 0.0 | 0.00 | 0.13 | 0.13 | 100 | 1014.1 |
| 20260905034537 | 75 | 0 | 0.0 | 0.0 | 0.00 | 0.13 | 0.13 | 100 | 1014.1 |
| 20260905034021 | 75 | 0 | 0.0 | 0.0 | 0.00 | 0.13 | 0.13 | 100 | 1014.2 |
| 20260905033520 | 75 | 0 | 0.0 | 0.0 | 0.00 | 0.13 | 0.13 | 100 | 1014.2 |
| 20260905033042 | 75 | 0 | 0.0 | 0.0 | 0.00 | 0.13 | 0.13 | 100 | 1014.3 |
| 20260905032523 | 75 | 0 | 0.0 | 0.0 | 0.00 | 0.13 | 0.13 | 100 | 1014.3 |
| 20260905032022 | 75 | 0 | 0.0 | 0.0 | 0.00 | 0.13 | 0.13 | 100 | 1014.2 |
| 20260905031537 | 75 | 0 | 0.0 | 0.0 | 0.00 | 0.13 | 0.13 | 100 | 1014.3 |
| 20260905031022 | 75 | 0 | 0.0 | 0.0 | 0.00 | 0.13 | 0.13 | 100 | 1014.4 |
| 20260905030519 | 75 | 0 | 0.0 | 0.0 | 0.00 | 0.13 | 0.13 | 100 | 1014.4 |
| 20260905030042 | 75 | 0 | 0.0 | 0.0 | 0.00 | 0.13 | 0.13 | 100 | 1014.3 |
| 20260905025519 | 75 | 0 | 0.0 | 0.0 | 0.00 | 0.13 | 0.13 | 100 | 1014.4 |
| 20260905025021 | 75 | 0 | 0.0 | 0.0 | 0.00 | 0.13 | 0.13 | 100 | 1014.5 |
| 20260905024541 | 75 | 0 | 0.0 | 0.0 | 0.00 | 0.13 | 0.13 | 100 | 1014.5 |
| 20260905024025 | 75 | 0 | 0.0 | 0.0 | 0.00 | 0.13 | 0.13 | 100 | 1014.5 |
| 20260905023519 | 75 | 0 | 0.0 | 0.0 | 0.00 | 0.13 | 0.13 | 100 | 1014.4 |
| 20260905023043 | 75 | 0 | 0.0 | 0.0 | 0.00 | 0.13 | 0.13 | 100 | 1014.5 |
| 20260905022526 | 75 | 0 | 0.0 | 0.0 | 0.00 | 0.13 | 0.13 | 100 | 1014.5 |
| 20260905022021 | 75 | 0 | 0.0 | 0.0 | 0.00 | 0.13 | 0.13 | 100 | 1014.5 |
| 20260905021547 | 75 | 0 | 0.0 | 0.0 | 0.00 | 0.13 | 0.13 | 100 | 1014.5 |
| 20260905021020 | 75 | 0 | 0.0 | 0.0 | 0.00 | 0.13 | 0.13 | 100 | 1014.5 |
| 20260905020519 | 75 | 0 | 0.0 | 0.0 | 0.00 | 0.13 | 0.13 | 100 | 1014.5 |
| 20260905020041 | 75 | 0 | 0.0 | 0.0 | 0.01 | 0.13 | 0.13 | 100 | 1014.5 |
| 20260905015526 | 75 | 0 | 0.0 | 0.0 | 0.01 | 0.13 | 0.13 | 100 | 1014.4 |
| 20260905015020 | 75 | 0 | 0.0 | 0.0 | 0.02 | 0.13 | 0.13 | 100 | 1014.5 |
| 20260905014536 | 75 | 0 | 0.0 | 0.0 | 0.02 | 0.13 | 0.13 | 100 | 1014.5 |
| 20260905014021 | 75 | 0 | 0.0 | 0.0 | 0.03 | 0.13 | 0.13 | 100 | 1014.5 |
| 20260905013524 | 75 | 0 | 0.0 | 0.0 | 0.04 | 0.13 | 0.13 | 100 | 1014.5 |
| 20260905013035 | 75 | 0 | 0.0 | 0.0 | 0.04 | 0.13 | 0.13 | 100 | 1014.4 |
| 20260905012520 | 75 | 0 | 0.0 | 0.0 | 0.05 | 0.13 | 0.13 | 100 | 1014.5 |
| 20260905012021 | 75 | 0 | 0.0 | 0.0 | 0.06 | 0.13 | 0.13 | 100 | 1014.4 |
| 20260905011541 | 75 | 0 | 0.0 | 0.0 | 0.07 | 0.13 | 0.13 | 100 | 1014.4 |
| 20260905011019 | 75 | 0 | 0.0 | 0.0 | 0.08 | 0.13 | 0.13 | 100 | 1014.3 |
| 20260905010520 | 76 | 0 | 0.0 | 0.0 | 0.08 | 0.13 | 0.13 | 100 | 1014.2 |
| 20260905010044 | 76 | 0 | 0.0 | 0.0 | 0.08 | 0.12 | 0.12 | 100 | 1014.2 |
| 20260905005520 | 76 | 0 | 0.0 | 0.0 | 0.10 | 0.12 | 0.12 | 100 | 1014.0 |
| 20260905005019 | 76 | 0 | 0.0 | 0.0 | 0.10 | 0.11 | 0.11 | 100 | 1014.1 |
| 20260905004538 | 76 | 0 | 0.0 | 0.0 | 0.10 | 0.11 | 0.11 | 100 | 1014.1 |
| 20260905004023 | 76 | 0 | 0.0 | 0.0 | 0.10 | 0.10 | 0.10 | 100 | 1014.1 |
| 20260905003522 | 76 | 0 | 0.0 | 0.0 | 0.09 | 0.09 | 0.09 | 100 | 1014.1 |
| 20260905003039 | 76 | 0 | 0.0 | 0.0 | 0.09 | 0.09 | 0.09 | 100 | 1014.1 |
| 20260905002520 | 76 | 0 | 0.0 | 0.0 | 0.08 | 0.08 | 0.08 | 100 | 1014.1 |
| 20260905002021 | 76 | 0 | 0.0 | 0.0 | 0.07 | 0.07 | 0.07 | 100 | 1014.3 |
| 20260905001540 | 76 | 0 | 0.0 | 0.0 | 0.06 | 0.06 | 0.06 | 100 | 1014.2 |
| 20260905001020 | 76 | 0 | 0.0 | 0.0 | 0.05 | 0.05 | 0.05 | 100 | 1014.0 |
| 20260905000521 | 76 | 0 | 0.0 | 0.0 | 0.05 | 0.05 | 0.05 | 100 | 1014.0 |
| 20260905000038 | 76 | 0 | 0.0 | 0.0 | 0.03 | 0.03 | 0.03 | 100 | 1013.8 |
| 20260904235522 | 76 | 0 | 0.0 | 0.0 | 0.02 | 0.02 | 0.02 | 100 | 1013.9 |
| 20260904235021 | 77 | 0 | 0.0 | 0.0 | 0.01 | 0.01 | 0.01 | 100 | 1014.1 |
| 20260904234543 | 77 | 0 | 0.0 | 0.0 | 0.01 | 0.01 | 0.01 | 100 | 1014.1 |
| 20260904234023 | 77 | 0 | 0.0 | 0.0 | 0.00 | 0.00 | 0.00 | 100 | 1014.1 |
| 20260904233522 | 77 | 0 | 0.0 | 0.0 | 0.00 | 0.00 | 0.00 | 100 | 1014.1 |
| 20260904233036 | 77 | 0 | 0.0 | 0.0 | 0.00 | 0.00 | 0.00 | 100 | 1014.2 |
| 20260904232520 | 77 | 0 | 0.0 | 0.0 | 0.00 | 0.00 | 0.00 | 100 | 1014.2 |
| 20260904232020 | 77 | 0 | 0.0 | 0.0 | 0.00 | 0.00 | 0.00 | 100 | 1014.2 |
| 20260904231542 | 77 | 0 | 0.0 | 0.0 | 0.00 | 0.00 | 0.00 | 100 | 1014.2 |
| 20260904231022 | 77 | 0 | 0.0 | 0.0 | 0.00 | 0.00 | 0.00 | 100 | 1014.1 |
| 20260904230519 | 77 | 0 | 0.0 | 0.0 | 0.00 | 0.00 | 0.00 | 100 | 1014.2 |
| 20260904230040 | 77 | 0 | 0.0 | 0.0 | 0.00 | 0.00 | 0.00 | 100 | 1014.3 |
| 20260904225522 | 77 | 0 | 0.0 | 0.0 | 0.00 | 0.00 | 0.00 | 100 | 1014.3 |
| 20260904225017 | 77 | 0 | 0.0 | 0.0 | 0.00 | 0.00 | 0.00 | 99 | 1014.4 |
| 20260904224542 | 77 | 0 | 0.0 | 0.0 | 0.00 | 0.00 | 0.00 | 99 | 1014.3 |
| 20260904224020 | 77 | 0 | 0.0 | 0.0 | 0.00 | 0.00 | 0.00 | 99 | 1014.4 |
| 20260904223516 | 78 | 0 | 0.0 | 0.0 | 0.00 | 0.00 | 0.00 | 99 | 1014.4 |
| 20260904223039 | 78 | 0 | 0.0 | 1.7 | 0.00 | 0.00 | 0.00 | 99 | 1014.2 |
| 20260904222519 | 78 | 0 | 0.0 | 1.7 | 0.00 | 0.00 | 0.00 | 98 | 1014.3 |
| 20260904222021 | 78 | 0 | 0.0 | 1.7 | 0.00 | 0.00 | 0.00 | 98 | 1014.4 |
| 20260904221538 | 78 | 0 | 0.0 | 0.0 | 0.00 | 0.00 | 0.00 | 97 | 1014.5 |
| 20260904221020 | 78 | 0 | 0.0 | 0.0 | 0.00 | 0.00 | 0.00 | 97 | 1013.8 |
| 20260904220520 | 78 | 0 | 0.0 | 0.0 | 0.00 | 0.00 | 0.00 | 97 | 1013.2 |
| 20260904220105 | 78 | 0 | 0.0 | 0.9 | 0.00 | 0.00 | 0.00 | 97 | 1012.9 |
| 20260904215518 | 79 | 0 | 0.0 | 0.9 | 0.00 | 0.00 | 0.00 | 96 | 1013.2 |
| 20260904215018 | 79 | 0 | 0.0 | 0.9 | 0.00 | 0.00 | 0.00 | 95 | 1012.8 |
| 20260904214540 | 80 | 242 | 0.0 | 0.9 | 0.00 | 0.00 | 0.00 | 94 | 1012.6 |
| 20260904214024 | 81 | 0 | 0.0 | 0.9 | 0.00 | 0.00 | 0.00 | 92 | 1012.5 |
| 20260904213521 | 81 | 0 | 0.0 | 0.9 | 0.00 | 0.00 | 0.00 | 90 | 1012.5 |
| 20260904213040 | 82 | 0 | 0.0 | 2.6 | 0.00 | 0.00 | 0.00 | 88 | 1012.4 |
| 20260904212522 | 84 | 0 | 0.0 | 7.8 | 0.00 | 0.00 | 0.00 | 85 | 1012.5 |